| time (UTC) | temp F | wind direction | speed knots | gust knots | rain 1hr in | rain 24hr in | rain mn in | humidity % | barometer mb |
| 20260504081518 | 51 | 211 | 0.9 | 2.6 | 0.00 | 0.00 | 0.00 | 58 | 1016.3 |
| 20260504044547 | 53 | 211 | 0.0 | 1.7 | 0.00 | 0.00 | 0.00 | 51 | 1016.5 |
| 20260504043102 | 54 | 211 | 0.0 | 3.5 | 0.00 | 0.00 | 0.00 | 49 | 1016.6 |
| 20260504041534 | 54 | 211 | 0.9 | 2.6 | 0.00 | 0.00 | 0.00 | 48 | 1016.4 |
| 20260504040055 | 54 | 211 | 0.0 | 1.7 | 0.00 | 0.00 | 0.00 | 51 | 1016.4 |
| 20260504034522 | 54 | 211 | 0.0 | 0.9 | 0.00 | 0.00 | 0.00 | 47 | 1016.3 |
| 20260504033037 | 55 | 211 | 0.0 | 0.9 | 0.00 | 0.00 | 0.00 | 46 | 1016.1 |
| 20260504031558 | 55 | 211 | 0.0 | 3.5 | 0.00 | 0.00 | 0.00 | 46 | 1016.2 |
| 20260504030013 | 55 | 211 | 1.7 | 4.3 | 0.00 | 0.00 | 0.00 | 44 | 1016.2 |
| 20260504024548 | 55 | 211 | 1.7 | 4.3 | 0.00 | 0.00 | 0.00 | 45 | 1016.2 |
| 20260504023002 | 55 | 211 | 0.9 | 2.6 | 0.00 | 0.00 | 0.00 | 46 | 1016.1 |
| 20260504021540 | 55 | 211 | 0.9 | 3.5 | 0.00 | 0.00 | 0.00 | 44 | 1015.9 |
| 20260504020112 | 56 | 211 | 1.7 | 4.3 | 0.00 | 0.00 | 0.00 | 43 | 1015.8 |
| 20260504014511 | 56 | 211 | 1.7 | 3.5 | 0.00 | 0.00 | 0.00 | 42 | 1015.7 |
| 20260504013044 | 57 | 211 | 1.7 | 4.3 | 0.00 | 0.00 | 0.00 | 41 | 1015.5 |
| 20260504011552 | 57 | 212 | 1.7 | 4.3 | 0.00 | 0.00 | 0.00 | 40 | 1015.4 |
| 20260504010013 | 58 | 212 | 0.9 | 4.3 | 0.00 | 0.00 | 0.00 | 40 | 1015.4 |
| 20260504004551 | 58 | 212 | 1.7 | 3.5 | 0.00 | 0.00 | 0.00 | 39 | 1015.2 |
| 20260504003009 | 59 | 213 | 0.0 | 2.6 | 0.00 | 0.00 | 0.00 | 38 | 1015.2 |
| 20260504001540 | 60 | 213 | 0.9 | 3.5 | 0.00 | 0.00 | 0.00 | 36 | 1015.1 |
| 20260504000108 | 62 | 213 | 1.7 | 2.6 | 0.00 | 0.00 | 0.00 | 34 | 1015.1 |
| 20260503234537 | 63 | 213 | 1.7 | 5.2 | 0.00 | 0.00 | 0.00 | 30 | 1015.1 |
| 20260503233007 | 64 | 216 | 1.7 | 4.3 | 0.00 | 0.00 | 0.00 | 26 | 1014.9 |
| 20260503231541 | 65 | 217 | 2.6 | 6.1 | 0.00 | 0.00 | 0.00 | 25 | 1015.0 |
| 20260503230058 | 65 | 192 | 2.6 | 6.1 | 0.00 | 0.00 | 0.00 | 25 | 1014.9 |
| 20260503224527 | 66 | 191 | 1.7 | 7.0 | 0.00 | 0.00 | 0.00 | 26 | 1014.7 |
| 20260503223049 | 66 | 184 | 3.5 | 9.6 | 0.00 | 0.00 | 0.00 | 25 | 1014.8 |
| 20260503221509 | 67 | 199 | 3.5 | 7.0 | 0.00 | 0.00 | 0.00 | 24 | 1015.0 |
| 20260503220037 | 68 | 273 | 1.7 | 4.3 | 0.00 | 0.00 | 0.00 | 23 | 1015.0 |
| 20260503214533 | 67 | 293 | 0.9 | 5.2 | 0.00 | 0.00 | 0.00 | 23 | 1015.0 |
| 20260503213046 | 67 | 297 | 1.7 | 5.2 | 0.00 | 0.00 | 0.00 | 25 | 1015.1 |
| 20260503211501 | 67 | 205 | 2.6 | 9.6 | 0.00 | 0.00 | 0.00 | 25 | 1015.1 |
| 20260503210035 | 67 | 307 | 0.9 | 4.3 | 0.00 | 0.00 | 0.00 | 25 | 1015.2 |
| 20260503204616 | 67 | 302 | 6.1 | 13.0 | 0.00 | 0.00 | 0.00 | 25 | 1015.4 |
| 20260503203025 | 67 | 216 | 1.7 | 4.3 | 0.00 | 0.00 | 0.00 | 25 | 1015.5 |
| 20260503201551 | 67 | 261 | 2.6 | 10.4 | 0.00 | 0.00 | 0.00 | 26 | 1015.9 |
| 20260503200003 | 68 | 286 | 4.3 | 8.7 | 0.00 | 0.00 | 0.00 | 25 | 1016.1 |
| 20260503194541 | 66 | 115 | 3.5 | 7.0 | 0.00 | 0.00 | 0.00 | 26 | 1016.1 |
| 20260503193115 | 66 | 261 | 2.6 | 11.3 | 0.00 | 0.00 | 0.00 | 26 | 1016.4 |
| 20260503191515 | 64 | 184 | 2.6 | 7.8 | 0.00 | 0.00 | 0.00 | 28 | 1016.7 |
| 20260503190040 | 64 | 195 | 1.7 | 9.6 | 0.00 | 0.00 | 0.00 | 28 | 1017.0 |
| 20260503184605 | 63 | 317 | 6.1 | 16.5 | 0.00 | 0.00 | 0.00 | 29 | 1017.0 |
| 20260503183016 | 62 | 202 | 3.5 | 9.6 | 0.00 | 0.00 | 0.00 | 29 | 1017.5 |
| 20260503181548 | 61 | 294 | 4.3 | 14.8 | 0.00 | 0.00 | 0.00 | 32 | 1017.6 |
| 20260503180106 | 62 | 186 | 4.3 | 10.4 | 0.00 | 0.00 | 0.00 | 30 | 1017.6 |
| 20260503174526 | 62 | 273 | 3.5 | 8.7 | 0.00 | 0.00 | 0.00 | 29 | 1018.0 |
| 20260503173047 | 61 | 294 | 3.5 | 13.9 | 0.00 | 0.00 | 0.00 | 30 | 1017.9 |
| 20260503171517 | 61 | 225 | 1.7 | 13.9 | 0.00 | 0.00 | 0.00 | 30 | 1018.0 |